x

Capers Nearshore (cap 2) (41029) Weather Station

8:08am - Mon 25th May 2015 All times are EDT. -4 hours from GMT.

  • Wind
    13mph, 18mph gusts
  • Air Temp 75°f
  • Sea Pressure 1026.1mb
  • Capers Nearshore (cap 2)
  • Capers Nearshore (cap 2)

More Historic Weather Station data

Upgrade to MSW Pro to gain access to the past 30 days of data for over 8000 Wavebouys and Weather Stations around the globe.

Join Pro

Comparision Forecast

View Surf forecast
   
Mon 05/25 8:08am 13 18 mph 1026.1mb 75f
7:08am 13 18 mph 1025.9mb 74f
6:08am 13 18 mph 1025.7mb 74f
5:08am 13 18 mph 1025.6mb 74f
4:08am 13 20 mph 1025.5mb 74f
3:08am 13 20 mph 1025.4mb 74f
2:08am 16 22 mph 1025.9mb 74f
1:08am 18 20 mph 1026.3mb 74f
12:08am 18 22 mph 1026.4mb 74f
Sun 05/24 11:08pm 16 22 mph 1026.6mb 75f
10:08pm 16 22 mph 1026.8mb 75f
9:08pm 18 25 mph 1026.3mb 75f
8:08pm 18 25 mph 1026.3mb 75f
6:08pm 16 20 mph 1026.5mb 76f
5:08pm 16 20 mph 1026.5mb 75f
4:08pm 16 20 mph 1026.8mb 75f
2:08pm 16 20 mph 1028mb 75f
1:08pm 16 20 mph 1028.2mb 75f
12:08pm 16 20 mph 1028.6mb 75f
11:08am 16 20 mph 1028.8mb 75f
10:08am 16 22 mph 1028.4mb 75f
9:08am 16 20 mph 1028.5mb 75f
8:08am 16 20 mph 1028.2mb 75f
7:08am 16 22 mph 1027.8mb 74f
6:08am 16 22 mph 1027.4mb 74f
4:08am 18 22 mph 1026.8mb 74f
3:08am 18 22 mph 1026.3mb 74f
2:08am 16 22 mph 1026.9mb 74f
1:08am 18 22 mph 1027.5mb 74f
12:08am 18 25 mph 1027.9mb 74f
Sat 05/23 11:08pm 18 22 mph 1027.8mb 74f
10:08pm 18 22 mph 1027.7mb 75f
9:08pm 18 22 mph 1027.2mb 75f
8:08pm 16 22 mph 1027.6mb 75f
7:08pm 18 22 mph 1027.6mb 74f
6:08pm 18 22 mph 1027.9mb 74f
5:08pm 18 22 mph 1027.8mb 74f
4:08pm 16 22 mph 1028.2mb 74f
3:08pm 16 20 mph 1028.4mb 73f
2:08pm 16 22 mph 1028.6mb 73f
1:08pm 18 22 mph 1028.9mb 73f
12:08pm 18 22 mph 1029.2mb 73f
11:08am 18 25 mph 1028.6mb 73f
10:08am 18 25 mph 1028.6mb 73f
9:08am 18 25 mph 1028.2mb 73f
8:08am 18 22 mph 1027.6mb 73f
7:08am 18 25 mph 1026.8mb 72f
6:08am 18 22 mph 1025.9mb 72f
5:08am 18 22 mph 1025.1mb 71f
4:08am 16 20 mph 1024.8mb 71f
3:08am 16 20 mph 1024.4mb 72f
2:08am 13 18 mph 1024.5mb 72f
1:08am 11 16 mph 1024.6mb 72f
12:08am 11 16 mph 1024.8mb 72f
Fri 05/22 11:08pm 11 16 mph 1024.6mb 72f
10:08pm 11 16 mph 1023.9mb 72f
9:08pm 11 16 mph 1023.2mb 71f
8:08pm 11 16 mph 1022.8mb 71f
7:08pm 11 18 mph 1022mb 71f
6:08pm 13 18 mph 1021.8mb 71f
4:08pm 16 20 mph 1022.1mb 70f
3:08pm 16 22 mph 1021.9mb 70f
2:08pm 18 22 mph 1021.9mb 69f
1:08pm 18 25 mph 1021.7mb 69f
12:08pm 20 27 mph 1021.7mb 69f
11:08am 20 27 mph 1021.3mb 69f
10:08am 20 27 mph 1020.5mb 69f
9:08am 25 31 mph 1020.1mb 69f
8:08am 22 31 mph 1019.2mb 69f
7:08am 22 31 mph 1018.5mb 70f
6:08am 25 34 mph 1017.1mb 71f
5:08am 25 31 mph 1015.9mb 72f
4:08am 22 27 mph 1014.8mb 74f
3:08am 11 16 mph 1013.9mb 76f
2:08am 11 16 mph 1013.5mb 77f
1:08am 11 13 mph 1013.5mb 78f
12:08am 9 11 mph 1012.6mb 79f
Thu 05/21 11:08pm 9 13 mph 1012.3mb 78f
10:08pm 11 16 mph 1011.7mb 78f
9:08pm 7 11 mph 1010.9mb 80f
8:08pm 11 13 mph 1010.2mb 82f
7:08pm 11 16 mph 1009.3mb 82f
6:08pm 13 18 mph 1009.1mb 82f
5:08pm 13 20 mph 1009.2mb 82f
4:08pm 18 22 mph 1009.6mb 82f
3:08pm 18 25 mph 1009.7mb 78f